Flag for Brazil Weather past 2 weeks in Porto Velho, Rondônia, Brazil

Now
77 °F

Passing clouds.


Feels Like: 78 °F
Forecast: 74 / 85 °F
Wind: 7 mph from Southeast

Location: Porto Velho Aeroporto

Current Time: Apr 2, 2015 at 2:57:37 AM

Latest Report: Apr 2, 2015 at 2:00 AM


Visibility: N/A

Pressure: 29.89 "Hg

Humidity: 83%

Dew point: 72 °F

Location of Porto VelhoLocation

Historic Weather in Porto Velho — Graph

°F

Porto Velho temperature yesterday

Maximum temperature yesterday: 88 °F (at 5:00 PM)
Minimum temperature yesterday: 73 °F (at 4:00 AM)
Average temperature yesterday: 79 °F

Past Weeks' High & Low Weather Summary

 TemperatureHumidityPressure
High91 °F (Mar 27, 4:00 PM)100% (Mar 21, 10:00 PM)29.98 "Hg (Mar 21, 10:00 PM)
Low41 °F (Mar 22, 6:00 PM)20% (Mar 19, 12:00 PM)29.77 "Hg (Mar 18, 4:00 PM)
Average77 °F87%29.88 "Hg
* Reported Mar 18 2:00 AM — Apr 2 2:00 AM, Porto Velho, Weather by CustomWeather, © 2015

Note: Actual official high and low records may vary slightly from our data, if they occured in-between our weather recording intervals... More about our weather records

Advertising

Porto Velho weather history for previous 24 hours

 ConditionsComfort  
Time TempWeatherWind HumidityBarometerVisibility
2:00 AM
Thu, Apr 2
77 °FPassing clouds.7 mph83%29.89 "HgN/A
1:00 AM77 °FClear.7 mph89%29.92 "Hg10 mi
12:00 AM75 °FClear.No wind94%29.92 "Hg10 mi
11:00 PM
Wed, Apr 1
75 °FClear.No wind94%29.92 "Hg10 mi
10:00 PM77 °FPassing clouds.2 mph89%29.92 "HgN/A
9:00 PM79 °FPassing clouds.2 mph84%29.89 "HgN/A
8:00 PM77 °FPassing clouds.2 mph89%29.86 "HgN/A
7:00 PM79 °FPassing clouds.No wind84%29.83 "HgN/A
6:00 PM82 °FPassing clouds.No wind74%29.80 "HgN/A
5:00 PM88 °FScattered clouds.No wind59%29.80 "HgN/A
4:00 PM86 °FScattered clouds.2 mph66%29.80 "HgN/A
3:00 PM84 °FBroken clouds.2 mph74%29.86 "HgN/A
2:00 PM84 °FThunderstorms. Broken clouds.2 mph70%29.89 "HgN/A
1:00 PM86 °FBroken clouds.3 mph66%29.92 "HgN/A
12:00 PM86 °FBroken clouds.3 mph66%29.95 "HgN/A
11:00 AM82 °FBroken clouds.3 mph74%29.98 "HgN/A
10:00 AM84 °FBroken clouds.1 mph66%29.98 "HgN/A
9:00 AM81 °FBroken clouds.2 mph79%29.98 "HgN/A
8:00 AM75 °FPartly sunny.2 mph94%29.95 "HgN/A
7:00 AM73 °FBroken clouds.No wind94%29.92 "HgN/A
6:00 AM73 °FPartly cloudy.2 mph94%29.92 "HgN/A
5:00 AM73 °FPartly cloudy.2 mph94%29.89 "HgN/A
4:00 AM73 °FPassing clouds.1 mph94%29.89 "HgN/A
3:00 AM75 °FPartly cloudy.No wind94%29.89 "HgN/A
2:00 AM75 °FPassing clouds.No wind94%29.92 "HgN/A
Weather by CustomWeather, © 2015

See weather overviewHow to use our weather pages